Tracking 25949 objects as of 8-Aug-2022
HD Live streaming from Space Station
objects crossing your sky now

COSMOS 1275 DEB

Track COSMOS 1275 DEB now!
10-day predictions


NORAD ID: 12757
Int'l Code: 1981-053DA
Perigee: 922.1 km
Apogee: 1,012.8 km
Inclination: 83.0 °
Period: 104.3 minutes
Semi major axis: 7338 km
RCS: 0.017 m2 (small)
Launch date: June 4, 1981
Source: Commonwealth of Independent States (former USSR) (CIS)
Launch site: PLESETSK MISSILE AND SPACE COMPLEX (PKMTR)

Note: This is SATELLITE DEBRIS
aabbcc
Your satellite tracking list
Your tracking list is empty




NASA's NSSDC Master Catalog

Two Line Element Set (TLE):
1 12757U 81053DA  22220.41647330  .00000379  00000-0  33873-3 0  9991
2 12757  82.9506 190.3795 0061826  50.6948  75.1375 13.81009316 58804
Source of the keplerian elements: AFSPC